{"data":{"norad_id":61852,"intl_designator":"2024-202H","name":"STARLINK-32433","alt_names":[],"object_type":"PAYLOAD","status":"ACTIVE","operator":null,"country":"US","launch_date":"2024-11-07","launch_site_code":"AFETR","launch_vehicle":null,"mission":null,"orbit_class":"UNKNOWN","rcs_meters":null,"size_class":null,"mass_kg":null,"dimensions":null,"purposes":["comms"],"wikipedia_slug":null,"has_3d_model":false,"image_url":null,"decayed_at":null,"tle_current":{"epoch":"2026-09-21T05:03:48.936384Z","epoch_age_seconds":127068,"freshness":"FRESH","line1":"1 61852U 24202H   26264.21098306 -.00000200  00000+0  22533-5 0  9993","line2":"2 61852  43.0018 213.4807 0001211 270.7867  89.2846 15.27574102105240","mean_motion":15.27574102,"eccentricity":0.0001211,"inclination_deg":43.0018,"raan_deg":213.4807,"arg_perigee_deg":270.7867,"mean_anomaly_deg":89.2846,"bstar":2.2533e-6,"rev_number":10524,"period_min":94.267112679814,"perigee_km":482.23586505532,"apogee_km":483.89764860522,"semimajor_km":6861.2037568303,"source":"CELESTRAK","updated_at":"2026-09-22T09:00:49.441104Z"}}}